Regional Weather Roundup
Issued by NWS

Home | Current Version | Previous Version | Text Only | Print | Product List | Glossary On
Versions: 1 2 3 4 5 6 7 8 9 10 11 12 13 14 15 16 17 18 19 20 21 22 23 24 25 26 27 28 29 30 31 32 33 34 35 36 37 38 39 40 41 42 43 44 45 46 47 48 49
000
ASUS43 KDMX 230207
RWRIA

WEATHER ROUNDUP FOR IOWA
NATIONAL WEATHER SERVICE DES MOINES IA
900 PM CDT MON SEP 22 2014

NOTE: "FAIR" INDICATES FEW OR NO CLOUDS BELOW 12,000 FEET WITH NO
SIGNIFICANT WEATHER AND/OR OBSTRUCTIONS TO VISIBILITY.

* - THESE STATIONS ARE NOT NWS STATIONS...THUS NOT UNDER NWS
QUALITY CONTROL.  THEY ALSO DO NOT REPORT WEATHER SUCH
AS PRECIPITATION OR FOG.

IAZ001>003-012>014-020>022-031>034-043>046-230300-
   NORTHWEST IOWA

CITY           SKY/WX    TMP DP  RH WIND       PRES   REMARKS
CARROLL *      PTCLDY    55  52  88 S3        30.20S
CHEROKEE *     MOCLDY    57  53  85 CALM      30.18S
DENISON *      MOCLDY    57  54  88 E7        30.18S
LE MARS *        N/A     61  52  72 SE7       30.17S
ORANGE CITY *  CLOUDY    61  52  72 S5        30.17S
SHELDON *      MOCLDY    55  50  82 SE6       30.16S
SIOUX CITY     MOCLDY    64  51  62 SE7       30.16S
SPENCER        PTCLDY    55  50  83 S6        30.18S
STORM LAKE *   CLEAR     57  54  88 S7        30.19S
$$

IAZ055>058-069>071-079>083-090>094-230300-
   SOUTHWEST IOWA

CITY           SKY/WX    TMP DP  RH WIND       PRES   REMARKS
ATLANTIC *     MOCLDY    57  52  82 N3        30.20S
AUDUBON *      MOCLDY    54  46  76 CALM      30.22S
CLARINDA *     CLEAR     57  52  82 CALM      30.22S
COUNCIL BLFS * MOCLDY    61  52  72 SE5       30.18S
CRESTON *      MOCLDY    57  52  82 SE6       30.23S
HARLAN  *      MOCLDY    55  54  94 CALM      30.24R
LAMONI         PTCLDY    62  52  69 SE7       30.23S
RED OAK *      CLOUDY    57  52  82 SW3       30.21R
SHENANDOAH *     N/A     57  54  88 CALM      30.20S
$$

IAZ047>049-059>061-072>074-084-230300-
   CENTRAL IOWA

CITY           SKY/WX    TMP DP  RH WIND       PRES   REMARKS
AMES           CLEAR     54  50  86 SE5       30.22R
ANKENY *       CLEAR     55  54  94 CALM      30.22S
CHARITON *     PTCLDY    57  52  82 SE5       30.24S
DES MOINES     PTCLDY    65  51  60 SE7       30.22S
GRINNELL*      CLEAR     55  48  80 SE5       30.25R
KNOXVILLE *    CLEAR     61  50  67 SE6       30.22F
MARSHALLTOWN   CLEAR     58  50  75 S6        30.23R
PELLA *        CLEAR     57  51  81 CALM      30.25S
PERRY *          N/A     55  50  83 S3        30.21S
$$

IAZ004>006-015-016-023>025-035-036-230300-
   NORTH CENTRAL IOWA

CITY           SKY/WX    TMP DP  RH WIND       PRES   REMARKS
ALGONA *       CLEAR     57  50  77 S7        30.20S
CLARION *        N/A     57  46  67 S7        30.21S
ESTHERVILLE    CLEAR     55  49  80 S7        30.18S
FORT DODGE *   PTCLDY    55  48  76 S3        30.21S
MASON CITY     CLEAR     53  49  86 S5        30.22R
FOREST CITY *  CLEAR     54  50  87 SE3       30.20S
IOWA FALLS *     N/A     56  49  76 S8        30.23S
$$

IAZ007>011-017>019-026>030-037>042-050>054-066-230300-
   NORTHEAST IOWA

CITY           SKY/WX    TMP DP  RH WIND       PRES   REMARKS
CEDAR RAPIDS   CLEAR     54  51  90 S3        30.23S
CHARLES CITY * CLEAR     57  48  72 S6        30.22R
CLINTON *      CLEAR     54  46  76 SW3       30.27S
DECORAH *      CLEAR     57  50  77 CALM      30.21S
DUBUQUE        CLEAR     53  48  83 SW3       30.24R
MONTICELLO *   CLEAR     52  48  87 CALM      30.24R
OELWEIN *      CLEAR     55  48  76 S7        30.24R
WATERLOO       CLEAR     57  49  74 S5        30.21S
$$

IAZ064-065-067-068-078-230300-
   EAST CENTRAL IOWA

CITY           SKY/WX    TMP DP  RH WIND       PRES   REMARKS
DAVENPORT      CLEAR     55  46  71 S3        30.26R
IOWA CITY      CLEAR     55  49  80 CALM      30.25S
MT. PLEASANT * PTCLDY    55  49  79 S6        30.26R
MUSCATINE *    CLEAR     54  50  87 CALM      30.25S
QUAD CITIES    CLEAR     51  46  83 E3        30.25R
$$

IAZ062-063-075>077-085>089-095>099-230300-
   SOUTHEAST IOWA

CITY           SKY/WX    TMP DP  RH WIND       PRES   REMARKS
BURLINGTON     CLEAR     52  50  93 CALM      30.26R
FAIRFIELD *    CLEAR     57  50  77 CALM      30.26R
FORT MADISON * PTCLDY    55  50  82 CALM      30.27S
KEOKUK *       PTCLDY    55  54  94 CALM      30.26R FOG
OSKALOOSA *      N/A     57  49  76 S5        30.25R
CENTERVILLE *    N/A     52  52 100 SE3       30.27R
OTTUMWA        CLEAR     53  50  89 S5        30.25R
WASHINGTON *   CLEAR     55  52  88 S5        30.25S
$$

ABBREVIATIONS USED IN REMARKS
   TC - TEMPERATURES IN CELSIUS
  WCI - WIND CHILL INDEX
   HX - HEAT INDEX
  VSB - VISIBILITY
$$



USA.gov is the U.S. government's official web portal to all federal, state and local government web resources and services.